Meridian, MS

8:33 PM CST on December 15, 2019 (GMT -0600)
Key

Weather History for KMEI - November, 2019

Change the Weather History Date:

Friday, November 15, 2019

  Actual Average Record
Temperature  
Mean Temperature 48 °F 55 °F  
Max Temperature 60 °F 68 °F 84 °F (1964)
Min Temperature 37 °F 42 °F 21 °F (1963)
Degree Days  
Heating Degree Days 16 11  
Month to date heating degree days 221 133  
Since 1 July heating degree days 291 257  
Cooling Degree Days 0 0  
Month to date cooling degree days 0 13  
Year to date cooling degree days 2846 2026  
Moisture  
Dew Point 33 °F    
Average Humidity 62    
Maximum Humidity 89    
Minimum Humidity 33    
Precipitation  
Precipitation 0.00 in 0.17 in 1.91 in (1927)
Month to date precipitation 1.16 2.28  
Year to date precipitation 56.01 48.43  
Sea Level Pressure  
Sea Level Pressure 30.23 in    
Wind  
Wind Speed 7 mph ()    
Max Wind Speed 18 mph    
Max Gust Speed 23 mph    
Visibility 10.0 miles    
Events      
T = Trace of Precipitation, MM = Missing Value Source: Averaged Metar Reports

Daily Weather History Graph

Daily Weather History Graph

Search for Another Location

Airport or City:

Astronomy

Nov. 15, 2019 Rise Set
Actual Time 6:24 AM CST 4:54 PM CST
Civil Twilight 5:58 AM CST 5:20 PM CST
Nautical Twilight 5:28 AM CST 5:50 PM CST
Astronomical Twilight 4:59 AM CST 6:19 PM CST
Moon 7:36 PM CST (11/15) 9:14 AM CST (11/15)
Length of Visible Light 11h 22m
Length of Day
10h 30m
Waning Gibbous, 90% of the Moon is Illuminated
Nov 15
Waning Gibbous
Nov 19
Last Quarter
Nov 26
New
Dec 4
First Quarter
Dec 11
Full

Hourly Weather History & Observations

Time (CST) Temp. Windchill Dew Point Humidity Pressure Visibility Wind Dir Wind Speed Gust Speed Precip Events Conditions
12:58 AM 43.0 °F 38.2 °F 39.0 °F 86% 30.28 in 10.0 mi WNW 8.1 mph - N/A   Clear
1:58 AM 43.0 °F 38.2 °F 37.9 °F 82% 30.26 in 10.0 mi North 8.1 mph - N/A   Scattered Clouds
2:58 AM 43.0 °F 41.3 °F 37.9 °F 82% 30.26 in 10.0 mi NNW 3.5 mph - N/A   Clear
4:58 AM 39.0 °F 34.0 °F 34.0 °F 82% 30.26 in 10.0 mi NNW 6.9 mph - N/A   Clear
5:58 AM 37.9 °F 33.5 °F 33.1 °F 83% 30.27 in 10.0 mi North 5.8 mph - N/A   Clear
6:58 AM 37.9 °F 34.4 °F 32.0 °F 79% 30.27 in 10.0 mi North 4.6 mph - N/A   Clear
7:58 AM 43.0 °F 38.2 °F 33.1 °F 68% 30.27 in 10.0 mi North 8.1 mph - N/A   Clear
8:58 AM 48.0 °F - 33.1 °F 56% 30.27 in 10.0 mi NNW 12.7 mph - N/A   Clear
9:58 AM 52.0 °F - 30.9 °F 45% 30.27 in 10.0 mi North 11.5 mph - N/A   Clear
11:58 AM 59.0 °F - 30.9 °F 35% 30.22 in 10.0 mi North - - N/A   Clear
12:58 PM 59.0 °F - 30.9 °F 35% 30.21 in 10.0 mi North - - N/A   Clear
1:58 PM 59.0 °F - 32.0 °F 36% 30.19 in - North - - N/A   Unknown
2:58 PM 60.1 °F - 33.1 °F 36% 30.18 in 10.0 mi NNW 15.0 mph 23.0 mph N/A   Clear
3:58 PM 57.0 °F - 33.1 °F 40% 30.19 in 10.0 mi North 15.0 mph 20.7 mph N/A   Clear
4:58 PM 52.0 °F - 33.1 °F 49% 30.19 in 10.0 mi NNW 8.1 mph - N/A   Clear
5:58 PM 46.9 °F - 34.0 °F 61% 30.20 in 10.0 mi NNW 5.8 mph - N/A   Clear
6:58 PM 43.0 °F 40.3 °F 35.1 °F 74% 30.22 in 10.0 mi NNW 4.6 mph - N/A   Clear
7:58 PM 41.0 °F 38.0 °F 33.1 °F 73% 30.23 in 10.0 mi NNW 4.6 mph - N/A   Clear
8:58 PM 41.0 °F 37.1 °F 32.0 °F 70% 30.22 in 10.0 mi North 5.8 mph - N/A   Clear
10:58 PM 37.9 °F 32.7 °F 28.9 °F 70% 30.21 in 10.0 mi NNW 6.9 mph - N/A   Clear
11:58 PM 37.9 °F 33.5 °F 28.9 °F 70% 30.20 in 10.0 mi North 5.8 mph - N/A   Clear